Volver al catálogo

STARLINK-32309

ActivoComunicacionesVLEO
NORAD 61676·PAYLOAD·🇺🇸 United States

Lanzado Oct 26, 2024 desde Cape Canaveral Space Force Station

Loading…

Próximos Pases (próximas 24 horas)

TLE

ActualizadoSource: CelesTrak SupGP

Época: Sep 14, 2026, 22:20 UTC

1 61676C 24193R   26257.93104167  .00046276  00000+0  13679-2 0  2577
2 61676  53.1575 287.8691 0001114  84.3815  92.6605 15.34353638    11

Sigue STARLINK-32309 en tiempo real con AllMySat

Download on the App Store